Regional Weather Roundup
Issued by NWS

Home | Current Version | Previous Version | Text Only | Print | Product List | Glossary Off
Versions: 1 2 3 4 5 6 7 8 9 10 11 12 13 14 15 16 17 18 19 20 21 22 23 24 25 26 27 28 29 30 31 32 33 34 35 36 37 38 39 40 41 42 43 44 45 46 47 48 49 50

078
ASUS43 KDTX 271910
RWRMI
MICHIGAN HOURLY REGIONAL WEATHER ROUNDUP
NATIONAL WEATHER SERVICE DETROIT/PONTIAC MI
300 PM EDT SUN MAY 27 2018

NOTE: "FAIR" INDICATES FEW OR NO CLOUDS BELOW 12,000 FEET WITH NO
SIGNIFICANT WEATHER AND/OR OBSTRUCTION TO VISIBILITY.

MIZ047>049-052>055-059>063-066>070-074>076-081>083-272000-
SOUTHEAST LOWER MICHIGAN

CITY           SKY/WX    TMP DP  RH WIND       PRES   REMARKS
ADRIAN         FAIR      89  60  37 NW7       29.91S
ALMA           FAIR      90  61  37 W10G18    29.87F HX  90
ANN ARBOR      FAIR      88  64  44 W8        29.90S
BAD AXE        FAIR      86  62  44 SW6       29.87F
CARO           FAIR      88  64  44 SW8       29.87S HX  90
DETROIT CITY   FAIR      86  67  52 SW5       29.89S
DETROIT        FAIR      89  63  41 W9        29.90R HX  90
FLINT          FAIR      86  65  49 SW10      29.89S
GROSSE ILE     FAIR      76  71  83 S6        29.91R HAZE
HILLSDALE      FAIR      88  59  37 NW8       29.92S
HOWELL         FAIR      88  62  41 W6        29.91S

CITY           SKY/WX    TMP DP  RH WIND       PRES   REMARKS
JACKSON        FAIR      90  62  39 W7        29.91S HX  90
LAMBERTVILLE   FAIR      90  55  31 W6        29.90S
LANSING        FAIR      90  65  43 SW7       29.89F HX  92
LAPEER         FAIR      89  58  35 W9        29.89S
MASON          FAIR      90  62  38 W7        29.91S HX  90
MONROE         FAIR      85  71  62 S6        29.90R HX  91
MT. CLEMENS    MOSUNNY   82  78  90 SE9       29.88S HX  91
PONTIAC        FAIR      88  62  41 SW7       29.89S
PORT HOPE        N/A     78  64  61 MISG      29.84F
PORT HURON     FAIR      86  61  42 SW5       29.89F
TRI CITIES     FAIR      91  66  43 W8        29.86F HX  93
MIDLAND        FAIR      90  66  45 SW6       29.84S HX  92
TROY           FAIR      89  61  39 S5        29.91S
SAGINAW HB     FAIR      90  61  37 SW9       29.85F
$$
MIZ043>046-050>051-056>058-064>065-071>073-077>080-272000-
SOUTHWEST LOWER MICHIGAN

CITY           SKY/WX    TMP DP  RH WIND       PRES   REMARKS
BATTLE CREEK   FAIR      90  66  45 SW6       29.91S HX  92
BENTON HARBOR  FAIR      88  66  48 W8        29.90S HX  90
BIG RAPIDS     FAIR      91  61  36 MISG      29.86F HX  90
COLDWATER      FAIR      89  55  30 CALM      29.91S
FREMONT        FAIR      91  63  38 W12G20    29.88S HX  92
HOLLAND        FAIR      89  64  43 W9        29.90S HX  90
GRAND RAPIDS   FAIR      92  63  38 W9        29.88F HX  93
IONIA          FAIR      91  61  36 W6        29.87F HX  91
KALAMAZOO      FAIR      92  61  35 VRB5      29.90S HX  92
LUDINGTON      FAIR      75  64  68 SW8       29.89S
MARSHALL       FAIR      90  61  37 CALM      29.90S HX  90
MOUNT PLEASANT FAIR      91  66  43 W7G20     29.84F HX  94
MUSKEGON       FAIR      83  63  50 SW9       29.89S
SOUTH HAVEN    FAIR      88  58  36 NW6       29.90F
$$
MIZ016>042-272000-
NORTHERN LOWER MICHIGAN

CITY           SKY/WX    TMP DP  RH WIND       PRES   REMARKS
ALPENA         FAIR      83  67  58 E9        29.81F
BEAVER ISLAND  FAIR      81  60  48 W3        29.86F
BELLAIRE       FAIR      80  60  51 W10       29.87S
CADILLAC       FAIR      90  52  27 W13G23    29.88S
CHARLEVOIX     FAIR      67  57  71 W6        29.91F
FRANKFORT      FAIR      74  62  67 CALM      29.88F
GAYLORD        FAIR      85  60  42 W8G25     29.87R
GRAYLING       FAIR      89  56  32 NW16G22   29.85R
HARBOR SPRINGS FAIR      56  52  86 SW7       29.88S
HOUGHTON LAKE  FAIR      89  55  31 W17G25    29.85F
MANISTEE       FAIR      79  65  62 W6        29.88S
OSCODA         FAIR      87  63  45 S12G20    29.81F
PELLSTON       FAIR      83  61  47 NW12      29.85S
ROGERS CITY    FAIR      57  49  76 N7        29.87R
TRAVERSE CITY  FAIR      72  58  61 VRB6      29.85R
$$
MIZ007>008-015-272000-
EASTERN UPPER MICHIGAN

CITY           SKY/WX    TMP DP  RH WIND       PRES   REMARKS
KINROSS        FAIR      77  62  59 N14       29.85R
MACKINAC ISLAN FAIR      70  58  66 SW6       29.85F
NEWBERRY       FAIR      81  59  47 N7G16     29.84S
S. S. MARIE    FAIR      78  64  61 NW12G17   29.85R
MUNISING         N/A     53  51  93 N8        29.88S
$$
MIZ004>006-011>014-085-272000-
CENTRAL UPPER MICHIGAN

CITY           SKY/WX    TMP DP  RH WIND       PRES   REMARKS
MANISTIQUE     FAIR      70  62  76 S7        29.84S
ESCANABA       FAIR      81  65  58 S8        29.85F
MENOMINEE      FAIR      77  62  59 SE9       29.87F
SAWYER-GWINN   SUNNY     77  59  53 N7        29.88S
$$
MIZ001>003-009>011-084-272000-
WESTERN UPPER MICHIGAN

CITY           SKY/WX    TMP DP  RH WIND       PRES   REMARKS
IRON MOUNTAIN  FAIR      89  55  31 VRB6G17   29.85S
HOUGHTON       FAIR      79  57  46 MISG      29.86S
COPPER HARBOR    N/A     47  42  83 CALM      29.87S
IRONWOOD       FAIR      82  60  47 W6        29.89F
$$

ABBREVIATIONS USED IN REMARKS
   TC - TEMPERATURE IN CELSIUS
  WCI - WIND CHILL INDEX
   HX - HEAT INDEX
  VSB - VISIBILITY





USA.gov is the U.S. government's official web portal to all federal, state and local government web resources and services.